Location: Asheville, NC
(35.6000°N, 82.5500°W)
Time: 17:39:05

RS-15 - Pass Details

Date: 13 March 2018
Orbit: 1888 x 2157 km, 64.8° (Epoch: 19 March)

Event Time Altitude Azimuth Distance (km) Brightness Sun altitude
Rises 06:58:33 0° 324° (NW) 5,594 10.1 -10.0°
Reaches altitude 10° 07:03:55 10° 343° (NNW) 4,543 9.8 -8.9°
Maximum altitude 07:11:22 18° 23° (NNE) 3,826 9.9 -7.4°
Drops below altitude 10° 07:18:34 10° 64° (ENE) 4,395 11.1 -6.0°
Sets 07:23:34 0° 82° (E) 5,347 12.8 -4.9°
